Location: Stanford
(52.2833°N, 2.4333°W)
Time: 20:16:17
(UTC+00:00)

ADEOS Rocket - Pass Details

Date: 22 January 2021
Orbit: 858 x 1307 km, 98.7° (Epoch: 27 February)

Event Time Altitude Azimuth Distance (km) Brightness Sun altitude
Rises 17:36:49 0° 12° (NNE) 3,802 5.8 -8.8°
Reaches altitude 10° 17:39:32 10° 7° (N) 2,781 5.1 -9.2°
Maximum altitude 17:45:17 43° 298° (WNW) 1,286 4.0 -10.0°
Drops below altitude 10° 17:50:35 10° 228° (SW) 2,552 6.4 -10.8°
Sets 17:52:59 0° 222° (SW) 3,458 7.0 -11.1°
